Starlink 31097

operational
NORAD ID: 58718 Int'l Des: 2024-002 Owner: SPXS Country: US Constellation: starlink
LEOCIRCULAR

About Starlink 31097

Description loading...

Live Position

Loading 3D Globe...

Upcoming Passes

Altitude History

Altitude vs Time

uPlot chart will show altitude changes over time

Two-Line Element Set

1 58718U 24002P 25257.91646529 -.00002778 00000-0 -81704-4 0 9990
2 58718 53.1620 326.3845 0000999 90.7855 269.3260 15.30199907 95107
Epoch: Sep 14, 2025 • Age: 22 hours

Current Status

Altitude 489.4 km
Velocity 7.62 km/s
Sub-Earth Point -41.09°S, 8.87°W
Launch Date Jan 3, 2024
Age 1.7 years
Type internet

Technical Details

Classification Payload
Mass 730.00 kg
Dry Mass 700.00 kg
Total Mass 730.00 kg
Length 0.30 m
Diameter 4.10 m
Span 29.00 m
Shape Box + pan
Manufacturer SPXS
Bus Type Starlink V2M
Phase Status In Orbit
Owner/State SPXS/US

Large Constellations

Loading constellations...